OPS 4682 DEB, 38459

Orbit data source: Space-Track

OPS 4682 DEB, 38459 is space debris in LEO originally from a launch on Sat, 03 Apr 1965 UTC launched from the Air Force Western Test Range (AFWTR). Debris objects in space refer to the collection of defunct objects orbiting the Earth. Examples of debris include non-operational satellites, rocket bodies, and fragments generated from explosions, collisions, or faulty payload assembly.

Loading next visibility...
Identifier
38459, 1965-027FQ
Orbit
LEO
Country
Flag of USUS
Related business
Manufacturer
Unknown
Mission
Spacecraft
Bus & Motor
Unknown
Mass
Unknown
Launch date (UTC)
1965-04-03 (61 years ago)
Launch vehicle
Unknown
Launch site
Air Force Western Test Range (AFWTR)
Object type
Payload
Rocket body
Debris
Shape & HBR
Unknown shape, 0.1 m
Radar Cross Section
Medium (>0.1 m² and <1 m²)

Expand to show TLE details & history
Last TLE update: 1 day ago

TLE from 1 day ago
0 OPS 4682 DEB
1 38459U 65027FQ  26234.79948556 -.00000147  00000-0 -56875-3 0  9997
2 38459  90.2428   7.5634 0030773 113.6418 246.7936 12.92930445557097
Epoch: 2026-08-22T19:11Z
TLE epoch observation values (Epoch: 2026-08-22T19:11:15.552Z)
Latitude
0.00004°
Longitude
108.64389°
Altitude
1,302.146 km
Speed
7.201 km/s
True Right ascension
00h 30m 15s
True Declination
0° 00' 00"
Sunlit
Object was in full shadow at epoch
Visualization orbit readout
Latitude
Unknown
Longitude
Unknown
Altitude
Unknown
Speed
Unknown
Apparent Right ascension
Unknown
Apparent Declination
Unknown
Sunlit
N/A
Visualization observer readout
Local Sidereal Time
15:53:48
Azimuth
Unknown
Elevation
Unknown
Doppler factor
Unknown
Orbital elements
Apogee altitude
1,310.637 km
Perigee altitude
1,263.461 km
Semi-major axis
7,665.186 km
Eccentricity
0.00308
Inclination
90.2428°
RAAN
7.5634°
Arg. of periapsis
113.6418°
True anomaly
246.46999°
Mean anomaly
246.7936°
Eccentric anomaly
246.63175°
Mean motion
3.23414 °/min
Orbital period
111.31 mins
BSTAR
-0.00056875
Loading maneuver chart data...
Computing Atmospheric mass density...
Loading historical data...
Loading historical data...
Loading historical data...
Loading historical data...
Loading historical data...
Loading historical data...
Loading historical data...

Documentation

Showing up to 5 results
|